Weather History for KHJH - October, 2011

Change the Weather History Date:

Monday, October 31, 2011

  Actual Average Record
Temperature  
Mean Temperature 48 °F -  
Max Temperature 71 °F 58 °F 84 °F (1950)
Min Temperature 26 °F 36 °F 12 °F (1993)
Degree Days  
Heating Degree Days 16    
Moisture  
Dew Point 27 °F    
Average Humidity 53    
Maximum Humidity 86    
Minimum Humidity 20    
Precipitation  
Precipitation 0.00 in - - ()
Sea Level Pressure  
Sea Level Pressure 30.01 in    
Wind  
Wind Speed 2 mph (South)    
Max Wind Speed 13 mph    
Max Gust Speed 18 mph    
Visibility 10 miles    
Events      
Averages and records for this station are not official NWS values.
T = Trace of Precipitation, MM = Missing Value Source: NWS Daily Summary

Daily Weather History Graph

Daily Weather History Graph

Search for Another Location

Airport or City:

Trip Planner

Search our weather history database for the weather conditions in past years. The results will help you decide how hot, cold, wet, or windy it might be!

Date:

Astronomy

Oct. 31, 2011 Rise Set
Actual Time 7:58 AM CDT 6:29 PM CDT
Civil Twilight 7:30 AM CDT 6:57 PM CDT
Nautical Twilight 6:58 AM CDT 7:29 PM CDT
Astronomical Twilight 6:26 AM CDT 8:00 PM CDT
Moon 1:06 PM CDT (10/31) 11:06 PM CDT (10/31)
Length of Visible Light 11h 27m
Length of Day
10h 30m
Waxing Crescent, 30% of the Moon is Illuminated
Oct 31
Waxing Crescent
Nov 2
First Quarter
Nov 10
Full
Nov 18
Last Quarter
Nov 25
New

Hourly Weather History & Observations

Time (CDT) Temp. Windchill Dew Point Humidity Pressure Visibility Wind Dir Wind Speed Gust Speed Precip Events Conditions
12:15 AM 33.8 °F - 23.0 °F 65% 30.11 in 10.0 mi Calm Calm - N/A   Clear
12:35 AM 33.8 °F - 23.0 °F 65% 30.10 in 10.0 mi Calm Calm - N/A   Clear
12:55 AM 32.0 °F - 23.0 °F 69% 30.11 in 10.0 mi Calm Calm - N/A   Clear
1:15 AM 32.0 °F - 23.0 °F 69% 30.11 in 10.0 mi Calm Calm - N/A   Clear
1:55 AM 30.2 °F - 23.0 °F 75% 30.11 in 10.0 mi Calm Calm - N/A   Clear
2:15 AM 30.2 °F - 23.0 °F 75% 30.10 in 10.0 mi Calm Calm - N/A   Clear
2:35 AM 30.2 °F - 23.0 °F 75% 30.10 in 10.0 mi Calm Calm - N/A   Clear
2:55 AM 28.4 °F - 24.8 °F 86% 30.10 in 10.0 mi Calm Calm - N/A   Clear
3:15 AM 28.4 °F - 23.0 °F 80% 30.10 in 10.0 mi Calm Calm - N/A   Clear
3:35 AM 30.2 °F - 23.0 °F 75% 30.10 in 10.0 mi Calm Calm - N/A   Clear
3:55 AM 28.4 °F - 23.0 °F 80% 30.10 in 10.0 mi Calm Calm - N/A   Clear
4:15 AM 28.4 °F - 23.0 °F 80% 30.09 in 10.0 mi Calm Calm - N/A   Clear
4:35 AM 26.6 °F - 23.0 °F 86% 30.09 in 10.0 mi Calm Calm - N/A   Clear
5:15 AM 28.4 °F - 23.0 °F 80% 30.09 in 10.0 mi Calm Calm - N/A   Clear
5:35 AM 28.4 °F - 23.0 °F 80% 30.08 in 10.0 mi Calm Calm - N/A   Clear
5:55 AM 28.4 °F - 23.0 °F 80% 30.08 in 10.0 mi Calm Calm - N/A   Clear
6:15 AM 26.6 °F - 23.0 °F 86% 30.07 in 10.0 mi Calm Calm - N/A   Clear
6:55 AM 26.6 °F - 23.0 °F 86% 30.07 in 10.0 mi Calm Calm - N/A   Clear
7:15 AM 26.6 °F - 23.0 °F 86% 30.06 in 10.0 mi Calm Calm - N/A   Clear
7:35 AM 26.6 °F - 23.0 °F 86% 30.05 in 10.0 mi Calm Calm - N/A   Clear
7:55 AM 26.6 °F - 23.0 °F 86% 30.05 in 10.0 mi Calm Calm - N/A   Clear
8:15 AM 26.6 °F - 23.0 °F 86% 30.05 in 10.0 mi Calm Calm - N/A   Clear
8:35 AM 28.4 °F - 23.0 °F 80% 30.06 in 10.0 mi Calm Calm - N/A   Clear
8:55 AM 30.2 °F - 24.8 °F 80% 30.06 in 10.0 mi Calm Calm - N/A   Clear
9:15 AM 32.0 °F - 26.6 °F 80% 30.06 in 10.0 mi Calm Calm - N/A   Clear
9:35 AM 33.8 °F - 26.6 °F 75% 30.06 in 10.0 mi Calm Calm - N/A   Clear
9:55 AM 37.4 °F - 30.2 °F 75% 30.06 in 10.0 mi Calm Calm - N/A   Clear
10:15 AM 46.4 °F 44.3 °F 30.2 °F 53% 30.05 in 10.0 mi South 4.6 mph - N/A   Clear
10:35 AM 50.0 °F - 30.2 °F 47% 30.05 in 10.0 mi SSE 5.8 mph - N/A   Clear
10:55 AM 53.6 °F - 30.2 °F 41% 30.04 in 10.0 mi South 4.6 mph - N/A   Clear
11:15 AM 55.4 °F - 30.2 °F 38% 30.04 in 10.0 mi SSE 4.6 mph - N/A   Clear
11:35 AM 59.0 °F - 30.2 °F 34% 30.04 in 10.0 mi South 6.9 mph - N/A   Clear
11:55 AM 60.8 °F - 30.2 °F 31% 30.03 in 10.0 mi South 4.6 mph - N/A   Clear
12:15 PM 62.6 °F - 30.2 °F 30% 30.03 in 10.0 mi South 5.8 mph - N/A   Clear
12:35 PM 64.4 °F - 28.4 °F 26% 30.02 in 10.0 mi South 5.8 mph - N/A   Clear
12:55 PM 64.4 °F - 28.4 °F 26% 30.01 in 10.0 mi South 9.2 mph - N/A   Clear
1:15 PM 68.0 °F - 28.4 °F 23% 29.99 in 10.0 mi SSW 8.1 mph - N/A   Clear
1:35 PM 68.0 °F - 28.4 °F 23% 29.98 in 10.0 mi SSW 9.2 mph - N/A   Clear
1:55 PM 68.0 °F - 28.4 °F 23% 29.97 in 10.0 mi South 9.2 mph - N/A   Clear
2:15 PM 69.8 °F - 28.4 °F 21% 29.96 in 10.0 mi South 9.2 mph - N/A   Clear
2:35 PM 69.8 °F - 28.4 °F 21% 29.95 in 10.0 mi South 9.2 mph - N/A   Clear
3:15 PM 71.6 °F - 28.4 °F 20% 29.93 in 10.0 mi South 10.4 mph - N/A   Clear
3:35 PM 71.6 °F - 28.4 °F 20% 29.92 in 10.0 mi SSW 8.1 mph 18.4 mph N/A   Clear
3:55 PM 71.6 °F - 28.4 °F 20% 29.91 in 10.0 mi South 12.7 mph - N/A   Clear
4:15 PM 71.6 °F - 28.4 °F 20% 29.90 in 10.0 mi SSW 10.4 mph - N/A   Clear
4:35 PM 71.6 °F - 28.4 °F 20% 29.90 in 10.0 mi South 12.7 mph 16.1 mph N/A   Clear
4:55 PM 71.6 °F - 28.4 °F 20% 29.90 in 10.0 mi SSW 9.2 mph 16.1 mph N/A   Clear
5:15 PM 71.6 °F - 28.4 °F 20% 29.89 in 10.0 mi South 8.1 mph - N/A   Clear
5:35 PM 69.8 °F - 30.2 °F 23% 29.89 in 10.0 mi SSW 8.1 mph - N/A   Clear
5:55 PM 69.8 °F - 30.2 °F 23% 29.89 in 10.0 mi South 6.9 mph - N/A   Clear
6:15 PM 66.2 °F - 30.2 °F 26% 29.89 in 10.0 mi South 4.6 mph - N/A   Clear
6:35 PM 62.6 °F - 30.2 °F 30% 29.89 in 10.0 mi South 4.6 mph - N/A   Clear
6:55 PM 59.0 °F - 30.2 °F 34% 29.90 in 10.0 mi South 3.5 mph - N/A   Clear
7:15 PM 55.4 °F - 30.2 °F 38% 29.90 in 10.0 mi Calm Calm - N/A   Clear
7:35 PM 51.8 °F - 30.2 °F 44% 29.90 in 10.0 mi SE 4.6 mph - N/A   Clear
7:55 PM 51.8 °F - 32.0 °F 47% 29.91 in 10.0 mi SSE 5.8 mph - N/A   Clear
8:15 PM 53.6 °F - 32.0 °F 44% 29.91 in 10.0 mi SSE 4.6 mph - N/A   Clear
8:35 PM 51.8 °F - 32.0 °F 47% 29.91 in 10.0 mi SSE 5.8 mph - N/A   Clear
8:55 PM 51.8 °F - 32.0 °F 47% 29.90 in 10.0 mi SE 5.8 mph - N/A   Clear
9:15 PM 50.0 °F - 32.0 °F 50% 29.90 in 10.0 mi SE 4.6 mph - N/A   Clear
9:35 PM 50.0 °F - 32.0 °F 50% 29.90 in 10.0 mi SE 3.5 mph - N/A   Clear
9:55 PM 48.2 °F - 33.8 °F 58% 29.90 in 10.0 mi SSE 5.8 mph - N/A   Clear
10:15 PM 53.6 °F - 35.6 °F 51% 29.90 in 10.0 mi South 5.8 mph - N/A   Clear
10:35 PM 53.6 °F - 35.6 °F 51% 29.90 in 10.0 mi South 4.6 mph - N/A   Clear
10:55 PM 53.6 °F - 35.6 °F 51% 29.90 in 10.0 mi South 6.9 mph - N/A   Clear
11:15 PM 55.4 °F - 35.6 °F 47% 29.89 in 10.0 mi South 9.2 mph - N/A   Clear
11:35 PM 55.4 °F - 35.6 °F 47% 29.89 in 10.0 mi South 10.4 mph - N/A   Clear
11:55 PM 55.4 °F - 35.6 °F 47% 29.89 in 10.0 mi South 10.4 mph - N/A   Clear